Location: Newark
(25.4297°S, 49.2719°W)
Time: 16:59:32
(UTC+00:00)

Vanguard 1 Rocket - Pass Details

Date: 26 November 2019
Orbit: 650 x 4226 km, 34.3° (Epoch: 05 December)

Event Time Altitude Azimuth Distance (km) Brightness Sun altitude
Rises 23:57:21 0° 247° (WSW) 8,432 13.5 -25.2°
Reaches altitude 10° 00:04:11 10° 253° (WSW) 7,190 12.8 -26.4°
Maximum altitude 00:23:55 38° 311° (NW) 3,911 10.5 -29.6°
Enters shadow 00:30:41 27° 354° (N) 3,790 10.1 -30.6°
Drops below altitude 10° 00:35:51 10° 15° (NNE) 4,399 - -31.4°
Sets 00:38:55 0° 24° (NNE) 4,994 - -31.8°
